Theta_e
282 283 285 286 288 290 292 294 296 296 296 296 297 297 298 298 298 298 302 305 309 313 315 317 316 315 315 315 315 314 313 314 310 287 289 288 287 289 290 292 294 298 299
281 283 284 286 287 288 290 292 294 294 295 295 295 295 295 296 297 297 298 300 302 310 312 314 314 310 311 311 312 307 311 307 298 287 285 285 285 285 287 287 289 290 295
280 282 283 284 285 287 288 290 292 293 292 292 292 292 292 292 293 293 293 294 296 301 309 308 301 303 299 299 300 299 298 296 294 289 284 285 285 285 285 286 286 286 288
280 281 282 283 285 286 287 288 289 290 290 289 289 289 289 290 290 290 290 289 290 291 294 299 298 298 296 295 293 293 293 292 290 288 285 285 284 285 286 286 283 284 284
278 280 281 283 284 286 286 286 287 287 287 287 286 287 287 288 289 287 287 287 287 287 288 291 291 290 290 292 292 291 291 288 287 286 284 284 284 285 285 284 282 282 281
278 279 281 282 283 283 284 285 285 285 285 285 284 285 285 286 288 289 287 286 286 285 285 286 287 290 290 291 291 291 291 289 287 286 285 285 285 284 284 283 282 282 280
278 280 281 281 282 282 283 283 283 283 284 284 284 284 283 284 287 286 285 284 284 283 284 284 284 284 285 285 286 286 287 289 289 287 286 285 284 284 284 283 283 283 280
278 280 280 280 281 282 282 282 282 283 283 283 283 283 283 284 287 286 284 283 282 282 283 283 283 283 284 283 283 283 283 282 282 282 282 282 284 285 284 284 282 278 279
277 279 281 281 281 281 281 281 282 282 283 283 283 283 283 283 286 286 284 282 282 282 282 282 282 283 285 284 281 280 280 281 285 286 286 286 286 286 283 282 279 279 276
276 279 281 282 281 280 281 281 282 282 282 283 283 284 283 283 286 285 283 282 281 281 282 283 283 282 283 283 280 279 276 276 277 276 276 277 277 278 280 278 279 278 273
277 279 280 281 281 281 281 281 281 280 280 280 280 280 283 284 284 285 284 282 281 280 280 281 283 285 284 283 282 279 278 277 276 274 273 273 273 272 272 273 273 274 268
277 278 278 279 280 280 280 280 280 279 278 277 278 278 279 281 284 285 284 283 282 280 279 280 281 283 283 283 281 281 279 275 271 270 270 270 270 270 269 268 268 268 270
274 276 276 277 277 278 278 278 277 278 277 276 275 275 275 277 279 284 283 283 281 279 279 279 279 279 279 279 279 277 272 270 269 269 269 269 268 268 267 265 264 263 264
273 272 273 274 275 275 277 277 275 274 273 274 273 272 273 275 277 277 279 279 279 278 277 275 276 275 274 271 269 270 269 269 269 268 267 266 264 263 262 262 261 262 261
274 271 272 272 272 274 275 275 276 275 274 271 269 271 271 275 277 279 278 277 275 276 271 269 268 268 267 266 265 265 266 266 265 263 263 261 262 263 263 260 259 258 259
269 270 271 271 270 272 272 275 280 279 280 280 279 276 277 279 279 280 280 281 280 276 264 263 265 266 265 264 263 263 263 263 263 262 260 261 260 261 260 260 260 257 258
267 269 270 272 271 269 268 268 270 272 278 278 278 278 278 277 278 277 278 279 278 271 262 262 262 263 262 262 261 261 260 260 258 259 258 258 258 258 258 256 256 256 254
260 264 264 264 266 267 268 267 266 263 261 262 272 274 276 276 276 275 274 267 260 261 257 259 258 259 260 260 259 258 257 257 256 256 255 253 253 253 253 253 253 251 250
262 261 262 261 262 263 265 263 262 259 257 257 258 265 264 273 273 271 269 257 257 255 253 255 254 255 255 255 254 252 252 252 251 250 250 250 249 250 249 249 250 251 250
259 262 261 261 260 262 262 262 260 258 257 255 254 255 254 255 253 252 254 252 254 253 252 254 250 249 250 251 249 249 250 250 250 249 248 248 248 249 249 248 248 250 248
260 259 261 258 260 261 261 261 261 259 257 254 255 256 264 254 252 251 250 250 250 250 250 250 248 248 247 247 247 248 248 250 248 248 248 247 247 250 247 248 247 246 247
260 259 257 259 258 260 258 259 259 258 256 255 255 257 267 253 251 250 250 249 248 247 247 248 248 248 248 248 248 247 248 248 246 246 247 247 247 246 246 247 247 247 247
260 259 257 255 256 256 256 254 257 257 256 254 254 254 253 251 250 250 250 248 247 247 246 246 247 247 245 245 245 248 248 248 248 246 247 246 246 246 245 246 246 245 245
260 260 260 257 256 257 257 256 254 255 255 253 252 252 253 251 250 251 249 247 247 246 246 246 246 248 246 246 244 244 245 246 245 247 247 246 246 245 244 243 244 244 245
259 259 259 258 257 257 255 253 254 253 253 255 253 251 250 250 249 249 248 247 247 247 247 246 246 247 248 249 247 247 247 254 250 249 246 245 247 244 243 243 244 243 243
259 258 258 256 255 254 255 254 254 254 254 254 253 252 252 251 250 248 248 247 247 247 247 246 247 249 248 249 250 253 253 257 253 252 249 248 248 248 245 246 245 245 246
Wind_Speed
12 11 11 11 9 9 8 5 3 5 6 5 4 3 5 8 7 6 7 9 11 10 9 14 15 10 8 7 7 6 6 6 6 2 1 1 4 5 5 7 6 7 9
13 13 11 9 9 8 6 6 4 3 3 4 4 3 3 5 5 5 6 5 8 13 11 13 14 8 11 10 8 6 7 4 4 5 2 2 3 3 5 8 7 8 8
12 12 11 9 8 8 7 6 5 3 2 3 4 4 4 4 5 3 3 4 6 4 11 12 10 10 8 4 6 7 5 4 3 5 5 2 2 1 5 6 7 8 8
12 10 10 9 8 6 6 6 5 5 4 5 6 5 5 4 4 5 5 4 4 5 5 7 10 9 11 10 7 7 6 6 8 7 5 4 3 2 2 5 6 6 6
11 9 8 8 7 5 5 6 6 7 6 6 6 6 7 7 5 4 7 6 8 10 6 5 10 11 13 10 8 7 7 6 6 7 4 4 5 6 5 3 4 4 5
9 9 8 7 6 6 6 6 7 7 7 9 10 9 9 7 14 16 10 6 9 9 6 5 15 15 19 24 22 17 9 7 9 5 4 8 7 5 5 5 6 3 3
9 9 9 8 8 7 7 9 9 9 10 10 10 11 11 12 21 23 20 9 13 14 10 8 6 9 16 16 27 25 20 20 13 4 10 6 8 3 7 6 3 3 3
11 10 10 8 8 8 9 10 9 9 10 9 9 10 11 13 24 26 23 15 17 15 8 5 12 11 17 17 17 19 15 13 11 9 9 7 8 8 5 3 4 6 5
11 11 10 10 10 10 10 10 8 9 10 10 10 11 12 13 22 24 18 17 19 12 10 11 14 11 21 22 17 17 14 13 21 25 24 23 22 16 8 7 4 5 2
11 10 10 10 11 11 11 10 9 10 10 9 11 11 14 13 21 21 15 11 14 6 10 17 14 15 20 17 13 11 14 9 8 10 9 14 15 15 18 8 2 3 3
9 9 10 10 10 9 10 10 9 10 10 11 11 11 12 12 14 18 16 9 9 6 10 6 10 21 23 22 20 10 12 9 13 10 8 8 9 9 7 7 7 4 2
7 8 9 9 8 8 9 9 10 9 10 10 10 10 10 10 16 19 19 17 14 9 8 6 8 21 22 22 17 21 21 13 7 8 7 7 6 6 6 6 7 7 7
5 6 7 8 8 8 8 8 7 7 7 7 6 6 7 7 7 17 18 19 18 10 7 14 18 20 21 20 23 20 12 6 6 7 6 5 3 2 3 3 4 5 7
3 5 4 6 7 7 6 6 6 5 5 5 5 5 5 6 6 5 5 6 14 10 12 9 15 17 18 13 9 10 7 6 5 6 4 3 3 4 4 2 2 2 3
3 3 4 4 4 5 6 4 5 6 6 5 2 1 2 4 4 6 5 5 4 8 6 5 5 7 7 7 8 8 7 6 7 4 5 3 2 2 3 2 1 1 3
3 2 2 2 2 4 4 6 16 15 15 14 13 7 4 10 11 11 9 10 14 11 5 3 4 5 6 5 5 6 5 5 4 4 4 4 3 2 2 3 4 4 4
3 2 2 4 3 3 2 2 5 7 14 14 13 12 10 8 10 10 10 10 10 8 4 3 4 5 4 4 4 4 4 4 3 5 4 4 4 4 5 4 3 3 4
1 0 1 0 1 2 3 3 3 3 2 2 7 8 10 9 7 8 8 7 5 6 4 4 5 4 4 4 4 3 3 4 4 3 4 3 3 3 3 4 3 3 2
4 3 2 1 0 2 2 3 2 3 3 2 2 4 6 9 11 12 10 4 4 4 3 4 3 3 3 3 3 3 3 3 2 3 3 3 2 3 2 2 3 4 3
4 6 5 4 3 3 3 4 3 2 2 2 2 3 1 3 3 3 3 3 4 3 3 4 2 3 3 3 3 3 3 3 3 3 3 3 2 3 3 3 2 2 1
4 4 5 3 3 3 3 4 4 4 4 3 3 3 5 4 3 2 2 2 3 3 3 3 3 3 3 3 3 3 3 2 2 2 2 2 2 2 2 2 2 2 2
5 4 3 4 3 4 4 4 4 4 3 3 1 2 9 3 3 2 2 1 1 2 2 3 2 2 2 3 3 3 3 2 1 1 1 1 2 2 2 1 1 1 1
5 5 4 3 3 4 3 3 4 4 4 3 3 3 2 2 2 1 1 1 0 0 0 2 2 0 1 1 2 4 4 4 4 4 3 2 2 2 3 2 2 1 2
6 6 6 4 3 3 4 4 3 4 4 3 3 3 3 3 3 3 3 2 2 2 2 2 3 4 3 3 3 3 3 3 3 4 5 4 3 3 2 2 3 4 3
6 6 5 6 5 5 4 3 3 3 3 4 3 2 2 2 2 3 3 2 2 2 3 3 3 4 5 6 5 6 5 7 5 6 4 4 6 5 4 3 4 4 4
6 5 5 4 4 4 4 4 4 3 4 3 3 3 3 4 3 3 3 2 2 3 4 3 4 7 7 6 8 8 7 9 8 9 6 5 6 6 4 7 7 4 5
Wind_Direction
311 308 303 305 297 282 294 336 315 1 10 352 344 331 305 292 285 283 269 266 266 251 222 201 202 179 177 179 177 172 179 179 200 110 94 65 50 67 47 55 40 59 61
313 311 310 307 309 310 315 336 307 345 5 336 328 318 316 300 291 290 293 264 263 241 218 209 195 178 172 174 174 158 186 160 131 134 120 75 66 41 74 74 60 47 57
317 316 314 320 323 324 326 320 346 346 353 11 353 359 332 321 308 335 340 318 300 277 212 191 167 156 142 147 146 147 140 115 118 131 126 135 116 62 82 71 60 61 47
319 321 324 325 327 329 341 358 16 17 19 26 14 9 358 339 356 13 33 11 16 84 338 164 144 150 144 126 115 122 126 126 104 112 92 117 107 84 73 106 75 50 57
323 328 332 329 336 352 15 26 38 42 37 47 33 28 25 22 27 41 57 31 32 45 40 102 88 94 93 106 122 111 122 98 109 115 122 125 123 153 142 103 95 87 55
331 343 349 350 2 18 23 36 55 58 53 58 49 45 45 44 57 66 69 60 55 57 4 54 79 94 97 90 87 81 81 132 125 120 137 132 149 121 122 123 128 128 105
348 358 6 9 24 30 43 53 53 59 63 61 60 59 56 57 66 69 66 57 63 44 16 353 103 85 83 85 77 74 64 68 69 93 127 134 129 111 121 118 93 89 114
3 7 16 15 32 44 54 56 56 58 63 64 63 64 69 64 68 70 71 63 55 46 7 33 54 67 78 85 85 76 71 66 69 72 76 74 83 94 93 102 101 102 88
3 10 23 29 36 40 49 51 54 64 62 61 58 62 66 63 64 68 67 66 62 47 41 46 55 64 84 94 93 96 85 73 72 78 77 77 76 79 95 113 124 134 107
353 3 18 33 43 45 44 41 43 52 56 57 59 57 63 65 65 69 67 72 81 46 42 52 65 73 81 87 93 101 92 80 86 74 56 56 55 56 55 45 41 100 111
342 10 24 26 39 41 49 43 45 48 50 48 49 38 49 59 65 70 71 80 84 74 61 57 58 74 79 79 80 81 92 95 79 73 70 60 53 49 48 45 35 60 114
347 22 24 27 36 32 43 44 44 45 48 43 44 45 32 33 68 73 76 76 76 72 77 67 81 76 73 78 79 80 83 75 65 64 61 52 57 52 46 44 45 54 52
7 27 34 39 39 40 41 47 47 42 48 43 42 43 36 27 37 70 82 87 88 85 82 82 75 73 67 64 70 67 52 62 78 79 77 74 55 61 86 61 39 52 59
40 35 30 56 56 49 69 60 60 59 62 63 49 38 24 29 38 34 50 85 92 86 81 74 83 82 80 78 69 60 57 56 76 89 87 66 29 33 41 24 62 357 72
52 55 50 44 50 74 69 55 85 106 100 94 64 61 102 90 70 96 107 125 119 111 90 53 49 51 59 56 53 48 45 49 62 51 72 72 61 51 35 352 43 38 80
144 130 140 111 61 60 65 81 73 72 68 74 84 76 57 80 66 75 91 95 109 94 46 63 78 81 82 81 75 67 52 61 60 72 62 57 56 66 62 26 49 50 63
157 170 146 141 141 130 95 90 97 26 50 70 67 68 75 76 68 76 69 92 99 104 98 106 105 99 103 103 107 87 75 47 40 55 56 47 52 39 43 33 42 50 41
147 157 163 243 116 120 153 146 137 142 122 346 36 58 65 59 67 75 92 78 49 40 53 73 74 70 66 79 72 69 65 60 57 67 71 60 57 90 61 49 38 83 59
174 183 187 184 147 119 93 85 100 116 137 158 352 24 11 70 66 62 72 88 107 83 69 80 75 90 93 98 98 91 105 98 101 102 77 89 84 99 80 77 88 76 106
181 180 179 168 159 147 146 140 134 140 153 186 190 213 274 62 51 23 37 72 94 102 109 110 112 113 117 120 119 123 108 107 112 107 122 119 120 117 123 132 114 109 108
169 175 172 143 164 174 166 175 172 164 172 183 198 214 160 122 136 120 124 106 123 127 138 139 145 137 138 135 128 114 106 110 109 117 109 98 98 77 106 102 111 122 131
170 166 165 177 170 173 185 174 170 159 166 158 221 309 104 89 110 124 113 96 109 123 132 125 115 131 154 143 141 118 116 130 139 135 146 147 138 123 117 101 86 96 86
163 163 175 174 176 161 151 169 166 168 174 173 148 110 92 124 133 142 178 209 152 165 126 110 124 230 264 216 187 165 161 200 203 165 168 183 184 181 171 196 193 207 185
168 176 175 172 163 176 178 182 178 165 162 167 169 170 166 174 181 196 203 197 192 217 190 180 186 199 208 223 214 211 215 220 181 195 185 185 222 215 185 198 209 215 231
168 168 174 178 183 184 172 168 169 170 171 174 187 179 185 175 181 214 218 202 202 196 231 218 215 226 235 245 247 244 235 245 211 193 188 184 211 203 204 198 205 216 212
165 170 171 162 169 164 169 170 190 185 186 184 181 186 183 191 204 208 217 208 219 231 242 237 241 242 247 247 251 252 241 240 231 219 198 191 208 217 196 217 217 207 216